Regional Weather Roundup
Issued by NWS

Home | Current Version | Previous Version | Graphics & Text | Print | Product List | Glossary On
Versions: 1 2 3 4 5 6 7 8 9 10 11 12 13 14 15 16 17 18 19 20 21 22 23 24 25 26 27 28 29 30 31 32 33 34 35 36 37 38 39 40 41 42 43 44 45 46 47 48 49 50
000
ASUS45 KCYS 220810
RWRWY

WYOMING REGIONAL WEATHER ROUNDUP
NATIONAL WEATHER SERVICE CHEYENNE WY
200 AM MDT SUN APR 22 2018

NOTE:  "FAIR" INDICATES FEW OR NO CLOUDS BELOW 12,000 FEET
WITH NO SIGNIFICANT WEATHER AND/OR OBSTRUCTIONS TO VISIBILITY.

WYZ001-220900-
YELLOWSTONE NATIONAL PARK

CITY           SKY/WX    TMP DP  RH WIND       PRES   REMARKS
LK YELLOWSTONE   N/A     26  23  88 NW3       30.25F
W YELLOWSTONE  NOT AVBL

$$
WYZ002>013-054>058-071-098>099-220900-
NORTHERN WYOMING

CITY           SKY/WX    TMP DP  RH WIND       PRES   REMARKS
JACKSON        NOT AVBL
CODY           FAIR      50  29  44 N12G20    30.15R
GREYBULL       FAIR      47  36  65 NW5       30.05R
WORLAND        FAIR      43  34  70 SE8       30.05S
SHERIDAN       FAIR      50  34  54 NW25      30.10R
BUFFALO        FAIR      48  32  53 NW18G31   30.10R
GILLETTE       FAIR      40  36  86 S16       30.08R WCI  31
HULETT         FAIR      45  34  65 SW9       30.09S
NEWCASTLE      FAIR      36  32  87 SE5       30.14S WCI  32

$$
WYZ014>020-022>026-101>103-220900-
CENTRAL WYOMING

CITY           SKY/WX    TMP DP  RH WIND       PRES   REMARKS
BIG PINEY      FAIR      32  24  72 N10       30.23R WCI  24
PINEDALE       FAIR      32  25  74 NW14      30.23F WCI  22
DUBOIS         FAIR      34  23  64 NW16      30.20F WCI  23
LANDER         FAIR      48  25  40 SW13      30.11R
RIVERTON       FAIR      48  25  40 W18       30.10R
CASPER         FAIR      33  33 100 CALM      30.11S
DOUGLAS        FAIR      32  32 100 SE7       30.12S WCI  26

$$
WYZ021-027>030-104>119-220900-
SOUTHERN WYOMING

CITY           SKY/WX    TMP DP  RH WIND       PRES   REMARKS
EVANSTON       FAIR      41  23  48 S5        30.25F
KEMMERER       FAIR      36  28  75 NW8       30.25S WCI  29
FORT BRIDGER   FAIR      44  26  47 W9        30.28R
ROCK SPRINGS   FAIR      41  26  55 SW10      30.21R
DIXON          FAIR      35  32  87 CALM      30.24R
RAWLINS          N/A    N/A N/A N/A MISG      30.16S
SARATOGA       FAIR      34  30  86 CALM      30.19S
LARAMIE        FAIR      28  27  96 S5        30.16S WCI  23
CHEYENNE       CLOUDY    34  34 100 SW10      30.13F FOG     WCI  26
TORRINGTON     FAIR      33  33 100 E9        30.13F WCI  25
PINE BLUFFS    CLOUDY    32  32 100 MISG      30.16S

$$



USA.gov is the U.S. government's official web portal to all federal, state and local government web resources and services.